Location: Newark
(39.9500°N, 8.6833°E)
Time: 09:37:41
(UTC+00:00)

NO-84 - Pass Details

Date: 01 March 2020
Orbit: 328 x 491 km, 55.0° (Epoch: 01 April)

Event Time Altitude Azimuth Distance (km) Brightness Sun altitude
Exits shadow 04:56:43 15° 233° (SW) 1,329 ? -12.6°
Drops below altitude 10° 04:58:39 10° 200° (SSW) 1,587 ? -12.2°
Sets 05:01:23 0° 176° (S) 2,417 ? -11.7°
